EW6694 Weather Reports


time (UTC)temp
F
wind
direction
speed
knots
gust
knots
rain 1hr
in
rain 24hr
in
rain mn
in
humidity
%
barometer
mb
20260502183444 46 251 3.5 8.7 0.00 0.00 0.00 39 1011.9
20260502182945 46 220 5.2 8.7 0.00 0.00 0.00 39 1011.9
20260502182713 46 306 3.5 9.6 0.00 0.00 0.00 41 1012.0
20260502181943 46 244 7.0 9.6 0.00 0.00 0.00 40 1012.0
20260502181441 46 291 6.1 12.2 0.00 0.00 0.00 39 1011.9
20260502180944 46 315 2.6 12.2 0.00 0.00 0.00 39 1011.9
20260502180439 46 285 7.8 11.3 0.00 0.00 0.00 39 1012.0
20260502170428 44 241 6.1 9.6 0.00 0.00 0.00 47 1012.6
20260502164203 44 262 5.2 13.0 0.00 0.00 0.00 43 1012.8
20260502163423 44 292 5.2 13.0 0.00 0.00 0.00 47 1012.8
20260502162924 43 288 7.8 13.9 0.00 0.00 0.00 46 1012.9
20260502162422 44 262 7.8 13.9 0.00 0.00 0.00 46 1012.9
20260502161920 44 289 7.8 13.0 0.00 0.00 0.00 46 1013.0
20260502161424 43 279 3.5 10.4 0.00 0.00 0.00 46 1013.0
20260502160919 43 310 6.1 12.2 0.00 0.00 0.00 46 1013.1
20260502160419 43 313 7.0 12.2 0.00 0.00 0.00 48 1013.1
20260502151905 41 322 3.5 8.7 0.00 0.00 0.00 56 1013.5
20260502151404 42 323 6.1 11.3 0.00 0.00 0.00 56 1013.6
20260502150905 42 319 5.2 11.3 0.00 0.00 0.00 58 1013.6
20260502150416 42 232 7.8 10.4 0.00 0.00 0.00 57 1013.6
20260502150404 42 315 6.1 9.6 0.00 0.00 0.00 57 1013.6
20260502130337 37 284 0.9 6.1 0.00 0.00 0.00 70 1014.9
20260502123316 36 358 0.0 0.0 0.00 0.00 0.00 72 1015.0
20260502122810 36 293 0.0 2.6 0.00 0.00 0.00 73 1014.9
20260502122255 35 293 1.7 4.3 0.00 0.00 0.00 73 1015.1
20260502122249 35 293 0.0 4.3 0.00 0.00 0.00 74 1015.0
20260502121223 35 317 3.5 4.3 0.00 0.00 0.00 73 1015.1
20260502120723 35 305 0.0 3.5 0.00 0.00 0.00 75 1015.1
20260502120220 35 341 1.7 3.5 0.00 0.00 0.00 76 1014.9
20260502115719 35 334 0.9 3.5 0.00 0.00 0.00 76 1015.0
20260502115218 34 327 1.7 3.5 0.00 0.00 0.00 77 1015.0
20260502114717 34 21 3.5 3.5 0.00 0.00 0.00 76 1014.8
20260502114217 34 16 1.7 3.5 0.00 0.00 0.00 79 1014.8
20260502113718 34 19 1.7 4.3 0.00 0.00 0.00 80 1014.9
20260502113215 34 19 2.6 4.3 0.00 0.00 0.00 81 1014.8
20260502112946 34 19 2.6 3.5 0.00 0.00 0.00 82 1014.6
20260502112214 33 23 0.9 1.7 0.00 0.00 0.00 82 1014.5
20260502111706 33 132 0.0 0.0 0.00 0.00 0.00 82 1014.5
20260502111155 33 132 0.0 0.0 0.00 0.00 0.00 82 1014.5
20260502110649 33 132 0.0 0.0 0.00 0.00 0.00 82 1014.6
20260502110136 33 132 0.0 0.0 0.00 0.00 0.00 82 1014.6
20260502105620 33 132 0.0 0.0 0.00 0.00 0.00 82 1014.5
20260502105120 33 132 0.0 0.0 0.00 0.00 0.00 82 1014.6
20260502104613 33 132 0.0 0.0 0.00 0.00 0.00 82 1014.5
20260502104340 33 132 0.0 0.0 0.00 0.00 0.00 82 1014.5
20260502103606 33 132 0.0 0.0 0.00 0.00 0.00 82 1014.6
20260502103103 32 132 0.0 2.6 0.00 0.00 0.00 81 1014.5
20260502102552 33 132 0.0 2.6 0.00 0.00 0.00 81 1014.5
20260502102318 32 168 2.6 2.6 0.00 0.00 0.00 81 1014.5
20260502101600 32 118 0.0 0.0 0.00 0.00 0.00 81 1014.5
20260502101036 33 118 0.0 0.0 0.00 0.00 0.00 81 1014.5
20260502100530 33 118 0.0 0.0 0.00 0.00 0.00 81 1014.5
20260502091411 33 118 0.0 0.0 0.00 0.00 0.00 79 1014.3
20260502090906 33 118 0.0 0.9 0.00 0.00 0.00 79 1014.3
20260502090406 33 118 0.0 1.7 0.00 0.00 0.00 78 1014.3
20260502071307 34 358 3.5 6.1 0.00 0.00 0.00 75 1013.7
20260502070806 33 347 3.5 6.1 0.00 0.00 0.00 76 1013.7
20260502070309 33 288 0.0 5.2 0.00 0.00 0.00 78 1013.9
20260502065756 33 319 1.7 5.2 0.00 0.00 0.00 79 1013.9
20260502065257 32 330 2.6 5.2 0.00 0.00 0.00 82 1013.9
20260502064755 31 350 1.7 2.6 0.00 0.00 0.00 81 1013.9
20260502064256 31 303 0.0 0.0 0.00 0.00 0.00 81 1013.9
20260502063734 31 303 0.0 0.0 0.00 0.00 0.00 80 1013.9
20260502063231 31 303 0.0 0.0 0.00 0.00 0.00 80 1013.9
20260502063223 31 303 0.0 0.0 0.00 0.00 0.00 80 1013.9
20260502062153 31 303 0.0 0.0 0.00 0.00 0.00 80 1014.0
20260502061901 31 303 0.0 0.0 0.00 0.00 0.00 79 1014.0
20260502061106 31 303 0.0 0.0 0.00 0.00 0.00 79 1014.0
20260502060608 31 303 0.0 0.0 0.00 0.00 0.00 78 1013.9
20260502060106 31 303 0.0 0.0 0.00 0.00 0.00 77 1013.9
20260502055544 32 303 0.0 0.0 0.00 0.00 0.00 77 1014.0
20260502055033 32 303 0.0 0.0 0.00 0.00 0.00 76 1013.9
20260502054525 32 303 0.0 0.0 0.00 0.00 0.00 76 1014.0
20260502054025 33 303 0.0 0.0 0.00 0.00 0.00 75 1014.0
20260502053731 34 303 0.0 3.5 0.00 0.00 0.00 74 1014.0
20260502053612 33 303 0.0 0.0 0.00 0.00 0.00 75 1014.0
20260502052500 35 303 0.0 4.3 0.00 0.00 0.00 72 1013.9
20260502051937 35 299 1.7 4.3 0.00 0.00 0.00 72 1013.9
20260502051440 35 312 2.6 3.5 0.00 0.00 0.00 70 1013.9
20260502050934 35 326 2.6 3.5 0.00 0.00 0.00 70 1013.7
20260502050437 36 354 1.7 4.3 0.00 0.00 0.00 71 1013.7
20260502045934 36 9 2.6 4.3 0.00 0.00 0.00 70 1013.7
20260502045708 36 358 1.7 3.5 0.00 0.00 0.00 70 1013.7
20260502045205 36 343 0.0 1.7 0.00 0.00 0.00 69 1013.9
20260502044435 36 337 0.0 2.6 0.00 0.00 0.00 70 1013.9
20260502043929 36 338 1.7 3.5 0.00 0.00 0.00 69 1014.0
20260502043428 36 338 2.6 3.5 0.00 0.00 0.00 69 1014.0
20260502042924 36 326 1.7 3.5 0.00 0.00 0.00 69 1014.0
20260502042656 36 322 1.7 3.5 0.00 0.00 0.00 69 1013.9
20260502041926 36 338 1.7 3.5 0.00 0.00 0.00 70 1013.9
20260502041700 37 350 0.0 2.6 0.00 0.00 0.00 70 1013.7
20260502040920 37 350 1.7 2.6 0.00 0.00 0.00 68 1013.7
20260502040421 37 345 1.7 0.0 0.00 0.00 0.00 68 1013.9
20260502035852 37 348 1.7 3.5 0.00 0.00 0.00 68 1013.9
20260502035350 37 352 1.7 5.2 0.00 0.00 0.00 67 1014.0
20260502034850 38 350 0.9 5.2 0.00 0.00 0.00 66 1014.0
20260502034621 37 350 2.6 4.3 0.00 0.00 0.00 64 1013.9
20260502034121 38 4 3.5 5.2 0.00 0.00 0.00 65 1014.0
20260502033346 38 4 2.6 6.1 0.00 0.00 0.00 65 1014.0
20260502032844 38 352 4.3 6.1 0.00 0.00 0.00 64 1014.0
20260502032343 38 21 2.6 6.1 0.00 0.00 0.00 64 1013.9
20260502031843 38 358 3.5 7.8 0.00 0.00 0.00 65 1013.9
20260502031342 38 355 2.6 7.8 0.00 0.00 0.00 64 1013.9
20260502030842 38 355 6.1 7.8 0.00 0.00 0.00 64 1013.9
20260502030341 38 1 3.5 8.7 0.00 0.00 0.00 65 1014.0
20260502025839 38 351 4.3 9.6 0.00 0.00 0.00 63 1014.0
20260502025338 38 14 3.5 9.6 0.00 0.00 0.00 62 1014.0
20260502024837 38 354 7.0 9.6 0.00 0.00 0.00 61 1014.0
20260502024337 38 12 5.2 12.2 0.00 0.00 0.00 62 1014.1
20260502024108 39 14 4.3 12.2 0.00 0.00 0.00 62 1014.1
20260502023335 38 352 7.0 11.3 0.00 0.00 0.00 60 1014.0
20260502022834 38 11 4.3 13.0 0.00 0.00 0.00 63 1014.0
20260502022337 38 344 7.8 13.0 0.00 0.00 0.00 61 1014.0
20260502021832 38 2 7.8 12.2 0.00 0.00 0.00 61 1014.0
20260502021332 39 8 6.1 11.3 0.00 0.00 0.00 62 1014.0
20260502020831 39 46 4.3 13.0 0.00 0.00 0.00 62 1014.0
20260502020329 39 11 7.0 13.0 0.00 0.00 0.00 62 1014.0
20260502015830 39 343 7.0 12.2 0.00 0.00 0.00 61 1013.9
20260502015328 40 16 5.2 13.0 0.00 0.00 0.00 61 1013.7
20260502014828 40 358 5.2 13.0 0.00 0.00 0.00 61 1013.7
20260502014326 40 345 9.6 13.0 0.00 0.00 0.00 58 1013.6
20260502013825 40 336 7.8 12.2 0.00 0.00 0.00 59 1013.6
20260502013557 40 350 5.2 12.2 0.00 0.00 0.00 61 1013.5
20260502012838 40 1 5.2 12.2 0.00 0.00 0.00 60 1013.5
20260502012324 40 16 6.1 12.2 0.00 0.00 0.00 58 1013.4
20260502011836 40 4 9.6 12.2 0.00 0.00 0.00 59 1013.3
20260502011322 40 1 6.1 13.0 0.00 0.00 0.00 59 1013.3
20260502011105 40 357 7.8 13.0 0.00 0.00 0.00 62 1013.2
20260502010824 41 343 5.2 13.0 0.00 0.00 0.00 61 1013.2
20260502005818 41 8 2.6 5.2 0.00 0.00 0.00 66 1013.1
20260502005319 41 357 1.7 7.8 0.00 0.00 0.00 65 1012.9
20260502004819 41 358 1.7 7.8 0.00 0.00 0.00 65 1013.0
20260502004311 41 2 3.5 7.8 0.00 0.00 0.00 63 1012.9
20260502003818 41 0 1.7 5.2 0.00 0.00 0.00 66 1012.9
20260502003810 41 22 3.5 6.1 0.00 0.00 0.00 64 1012.9
20260502003437 41 345 3.5 6.1 0.00 0.00 0.00 64 1012.8
20260502002307 42 11 2.6 6.1 0.00 0.00 0.00 64 1012.8
20260502002039 42 315 4.3 6.1 0.00 0.00 0.00 63 1012.7
20260502001308 42 302 2.6 6.1 0.00 0.00 0.00 64 1012.7
20260502000805 42 279 1.7 6.1 0.00 0.00 0.00 66 1012.6
20260502000317 42 316 3.5 7.0 0.00 0.00 0.00 65 1012.5
20260502000304 41 265 3.5 6.1 0.00 0.00 0.00 65 1012.6
20260501235306 42 298 3.5 9.6 0.00 0.00 0.00 64 1012.5
20260501234803 42 298 4.3 9.6 0.00 0.00 0.00 64 1012.5
20260501234302 41 315 5.2 8.7 0.00 0.00 0.00 65 1012.5
20260501233800 41 317 4.3 7.8 0.00 0.00 0.00 65 1012.4
20260501233259 42 310 5.2 7.8 0.00 0.00 0.00 67 1012.4
20260501232800 42 317 3.5 7.8 0.00 0.00 0.00 67 1012.4
20260501232258 42 302 3.5 8.7 0.00 0.00 0.00 67 1012.4
20260501231756 42 286 4.3 9.6 0.00 0.00 0.00 68 1012.3
20260501231256 42 293 6.1 9.6 0.00 0.00 0.00 69 1012.3
20260501230755 41 313 6.1 10.4 0.00 0.00 0.00 69 1012.4
20260501230254 41 319 5.2 10.4 0.00 0.00 0.00 71 1012.4
20260501225754 41 299 7.0 10.4 0.00 0.00 0.00 69 1012.3
20260501225254 41 307 5.2 9.6 0.00 0.00 0.00 68 1012.4
20260501224752 42 278 3.5 9.6 0.00 0.00 0.00 67 1012.4
20260501224251 41 279 6.1 9.6 0.00 0.00 0.00 67 1012.4
20260501223754 41 282 6.1 8.7 0.00 0.00 0.00 65 1012.4
20260501223251 42 300 4.3 7.8 0.00 0.00 0.00 68 1012.3
20260501222749 42 324 4.3 7.8 0.00 0.00 0.00 69 1012.3
20260501222247 42 329 6.1 7.8 0.00 0.00 0.00 67 1012.3
20260501221747 42 315 5.2 7.8 0.00 0.00 0.00 66 1012.2
20260501221248 42 305 4.3 7.0 0.00 0.00 0.00 67 1012.3
20260501221015 42 293 3.5 7.8 0.00 0.00 0.00 67 1012.2
20260501220243 42 326 4.3 7.8 0.00 0.00 0.00 68 1012.2
20260501215743 42 320 4.3 8.7 0.00 0.00 0.00 68 1012.2
20260501215243 42 334 1.7 8.7 0.00 0.00 0.00 66 1012.2
20260501214743 42 319 3.5 8.7 0.00 0.00 0.00 67 1012.2
20260501214240 42 348 1.7 7.8 0.00 0.00 0.00 68 1012.1
20260501214012 42 338 3.5 7.8 0.00 0.00 0.00 68 1012.1
20260501213236 42 284 4.3 7.0 0.00 0.00 0.00 67 1012.1
20260501213009 42 309 4.3 7.8 0.00 0.00 0.00 69 1012.0
20260501212240 42 286 3.5 7.8 0.00 0.00 0.00 68 1012.1
20260501211725 42 345 1.7 7.8 0.00 0.00 0.00 69 1012.0
20260501211223 41 262 4.3 7.8 0.00 0.00 0.00 68 1012.1
20260501210721 41 333 5.2 8.7 0.00 0.00 0.00 68 1012.1
20260501210221 42 302 4.3 8.7 0.00 0.00 0.00 69 1012.1
20260501205951 42 288 2.6 7.8 0.00 0.00 0.00 70 1012.1
20260501205219 42 277 3.5 7.8 0.00 0.00 0.00 68 1012.1
20260501204718 42 354 3.5 8.7 0.00 0.00 0.00 70 1012.1
20260501204216 41 277 4.3 8.7 0.00 0.00 0.00 73 1012.1
20260501203716 41 319 7.0 8.7 0.00 0.00 0.00 70 1012.1
20260501203216 41 343 6.1 7.8 0.00 0.00 0.00 71 1012.1
20260501202714 42 289 0.9 5.2 0.00 0.00 0.00 74 1012.1
20260501202215 41 16 0.0 7.0 0.00 0.00 0.00 74 1012.1
20260501201704 41 340 0.0 7.0 0.00 0.00 0.00 75 1012.2
20260501201146 40 288 4.3 7.8 0.00 0.00 0.00 75 1012.2
20260501200645 40 274 1.7 9.6 0.00 0.00 0.00 75 1012.3
20260501200144 40 324 6.1 9.6 0.00 0.00 0.00 76 1012.3
20260501195643 39 282 5.2 8.7 0.00 0.00 0.00 76 1012.3
20260501195144 39 350 5.2 8.7 0.00 0.00 0.00 74 1012.4
20260501194652 39 317 7.0 8.7 0.00 0.00 0.00 75 1012.4
20260501194644 39 327 5.2 8.7 0.00 0.00 0.00 75 1012.3
20260501193640 40 329 7.0 8.7 0.00 0.00 0.00 77 1012.4
20260501193139 40 358 5.2 7.8 0.00 0.00 0.00 76 1012.4
20260501192909 40 348 4.3 6.1 0.00 0.00 0.00 77 1012.5
20260501192137 40 15 1.7 6.1 0.00 0.00 0.00 77 1012.4
20260501191913 40 42 1.7 6.1 0.00 0.00 0.00 78 1012.4
20260501191136 40 106 4.3 6.1 0.00 0.00 0.00 77 1012.4
20260501190635 40 77 2.6 6.1 0.00 0.00 0.00 78 1012.5
20260501190405 40 151 0.0 6.1 0.00 0.00 0.00 79 1012.5
20260501185635 39 316 3.5 6.1 0.00 0.00 0.00 77 1012.5
20260501185133 39 358 4.3 7.0 0.00 0.00 0.00 78 1012.5
20260501184905 39 336 0.9 7.8 0.00 0.00 0.00 80 1012.4
20260501184131 39 347 4.3 8.7 0.00 0.00 0.00 81 1012.5
20260501183631 38 23 6.1 8.7 0.00 0.00 0.00 79 1012.5